Weather History for Cincinnati, OH

Change the Weather History Date:

Monday, May 27, 2013

  Actual Average Record
Temperature  
Mean Temperature 68 °F -  
Max Temperature 82 °F 76 °F 91 °F (2012)
Min Temperature 55 °F 55 °F 36 °F (1961)
Cooling Degree Days 4    
Growing Degree Days 18 (Base 50)    
Moisture  
Dew Point 54 °F    
Average Humidity 62    
Maximum Humidity 96    
Minimum Humidity 38    
Precipitation  
Precipitation 0.09 in - - ()
Sea Level Pressure  
Sea Level Pressure 30.09 in    
Wind  
Wind Speed 5 mph (South)    
Max Wind Speed 15 mph    
Max Gust Speed 20 mph    
Visibility 10 miles    
Events Rain    
Averages and records for this station are not official NWS values.
T = Trace of Precipitation, MM = Missing Value Source: NWS Daily Summary

Daily Weather History Graph

Daily Weather History Graph

Search for Another Location

Airport:

Trip Planner

Search our weather history database for the weather conditions in past years. The results will help you decide how hot, cold, wet, or windy it might be!

Date:

Astronomy

May. 27, 2013 Rise Set
Actual Time 6:15 AM EDT 8:54 PM EDT
Civil Twilight 5:44 AM EDT 9:25 PM EDT
Nautical Twilight 5:05 AM EDT 10:04 PM EDT
Astronomical Twilight 4:22 AM EDT 10:48 PM EDT
Moon 11:33 PM EDT (5/27) 8:51 AM EDT (5/27)
Length of Visible Light 15h 40m
Length of Day
14h 38m
Waning Gibbous, 91% of the Moon is Illuminated
May 27
Waning Gibbous
May 31
Last Quarter
Jun 8
New
Jun 16
First Quarter
Jun 23
Full

Hourly Weather History & Observations

Time (EDT) Temp. Heat Index Dew Point Humidity Pressure Visibility Wind Dir Wind Speed Gust Speed Precip Events Conditions
12:53 AM 60.1 °F - 52.0 °F 75% 30.20 in 10.0 mi ENE 3.5 mph - N/A   Overcast
1:53 AM 63.0 °F - 46.0 °F 54% 30.20 in 10.0 mi Calm Calm - N/A   Overcast
2:53 AM 60.1 °F - 50.0 °F 69% 30.19 in 10.0 mi Calm Calm - N/A   Overcast
3:53 AM 61.0 °F - 46.9 °F 60% 30.18 in 10.0 mi Calm Calm - N/A   Overcast
4:53 AM 60.1 °F - 48.0 °F 64% 30.19 in 10.0 mi North 3.5 mph - N/A   Overcast
5:53 AM 55.0 °F - 54.0 °F 96% 30.20 in 3.0 mi South 4.6 mph - 0.03 in Rain Rain
6:53 AM 55.9 °F - 53.1 °F 90% 30.20 in 10.0 mi Calm Calm - 0.06 in   Overcast
7:53 AM 57.0 °F - 53.1 °F 87% 30.20 in 10.0 mi NE 4.6 mph - N/A   Mostly Cloudy
8:53 AM 59.0 °F - 54.0 °F 83% 30.18 in 10.0 mi Calm Calm - N/A   Mostly Cloudy
9:53 AM 63.0 °F - 52.0 °F 67% 30.17 in 10.0 mi ESE 5.8 mph - N/A   Scattered Clouds
10:53 AM 68.0 °F - 53.1 °F 59% 30.15 in 10.0 mi East 4.6 mph - N/A   Partly Cloudy
11:53 AM 71.1 °F - 55.9 °F 59% 30.13 in 10.0 mi SSE 12.7 mph 17.3 mph N/A   Clear
12:53 PM 73.9 °F - 57.9 °F 57% 30.10 in 10.0 mi SSE 4.6 mph - N/A   Clear
1:53 PM 77.0 °F - 61.0 °F 58% 30.08 in 10.0 mi SSE 8.1 mph - N/A   Clear
2:53 PM 80.1 °F 81.1 °F 61.0 °F 52% 30.04 in 10.0 mi South 15.0 mph 19.6 mph N/A   Clear
3:53 PM 81.0 °F 81.3 °F 59.0 °F 47% 30.02 in 10.0 mi SSW 15.0 mph - N/A   Partly Cloudy
4:53 PM 82.9 °F 82.8 °F 59.0 °F 44% 30.00 in 10.0 mi SSW 10.4 mph - N/A   Scattered Clouds
5:53 PM 81.0 °F 80.8 °F 55.9 °F 42% 29.98 in 10.0 mi SSW 13.8 mph - N/A   Partly Cloudy
6:53 PM 80.1 °F - 52.0 °F 38% 29.97 in 10.0 mi SSW 13.8 mph - N/A   Clear
7:53 PM 75.9 °F - 54.0 °F 46% 29.97 in 10.0 mi SSW 10.4 mph - N/A   Clear
8:53 PM 73.0 °F - 55.9 °F 55% 29.97 in 10.0 mi SSW 5.8 mph - N/A   Clear
9:53 PM 70.0 °F - 57.0 °F 63% 29.97 in 10.0 mi SSW 8.1 mph - N/A   Partly Cloudy
10:53 PM 73.0 °F - 57.9 °F 59% 29.98 in 10.0 mi SSW 8.1 mph - N/A   Mostly Cloudy
11:53 PM 73.9 °F - 57.0 °F 55% 29.99 in 10.0 mi SSW 10.4 mph - N/A   Overcast